TimeCDT,TemperatureF,Dew PointF,Humidity,Sea Level PressureIn,VisibilityMPH,Wind Direction,Wind SpeedMPH,Gust SpeedMPH,PrecipitationIn,Events,Conditions,WindDirDegrees,DateUTC
12:53 AM,37.0,25.0,62,30.25,10.0,SW,5.8,-,N/A,,Overcast,230,2013-04-03 05:53:00
1:53 AM,37.0,24.1,59,30.25,10.0,WSW,4.6,-,N/A,,Scattered Clouds,240,2013-04-03 06:53:00
2:53 AM,37.0,24.1,59,30.24,10.0,WSW,5.8,-,N/A,,Partly Cloudy,240,2013-04-03 07:53:00
3:53 AM,36.0,24.1,62,30.24,10.0,SW,3.5,-,N/A,,Partly Cloudy,230,2013-04-03 08:53:00
4:53 AM,34.0,26.1,73,30.24,10.0,WSW,3.5,-,N/A,,Mostly Cloudy,240,2013-04-03 09:53:00
5:53 AM,33.1,26.1,75,30.26,10.0,SW,3.5,-,N/A,,Mostly Cloudy,230,2013-04-03 10:53:00
6:53 AM,33.1,27.0,78,30.27,10.0,Calm,Calm,-,N/A,,Overcast,0,2013-04-03 11:53:00
7:53 AM,34.0,28.0,79,30.28,10.0,Calm,Calm,-,N/A,,Overcast,0,2013-04-03 12:53:00
8:53 AM,37.0,28.9,73,30.30,10.0,Calm,Calm,-,N/A,,Overcast,0,2013-04-03 13:53:00
9:53 AM,39.9,30.0,68,30.30,10.0,Calm,Calm,-,N/A,,Partly Cloudy,0,2013-04-03 14:53:00
10:53 AM,46.9,21.9,37,30.29,10.0,South,12.7,-,N/A,,Partly Cloudy,180,2013-04-03 15:53:00
11:53 AM,52.0,21.9,31,30.27,-9999.0,South,19.6,28.8,N/A,,Unknown,180,2013-04-03 16:53:00
12:53 PM,52.0,23.0,32,30.25,10.0,North,-9999.0,-,N/A,,Clear,0,2013-04-03 17:53:00
1:53 PM,53.1,23.0,31,30.23,10.0,SSE,17.3,32.2,N/A,,Mostly Cloudy,160,2013-04-03 18:53:00
2:53 PM,53.1,23.0,31,30.22,10.0,South,17.3,23.0,N/A,,Clear,190,2013-04-03 19:53:00
3:53 PM,54.0,24.1,31,30.21,10.0,South,13.8,20.7,N/A,,Clear,170,2013-04-03 20:53:00
4:53 PM,54.0,28.0,37,30.20,10.0,South,20.7,27.6,N/A,,Clear,190,2013-04-03 21:53:00
5:53 PM,51.1,28.9,43,30.20,10.0,South,18.4,24.2,N/A,,Clear,190,2013-04-03 22:53:00
6:53 PM,48.0,28.9,48,30.20,10.0,South,15.0,20.7,N/A,,Clear,180,2013-04-03 23:53:00
7:53 PM,46.0,28.9,51,30.21,10.0,South,9.2,-,N/A,,Clear,180,2013-04-04 00:53:00
8:53 PM,42.1,28.9,60,30.21,10.0,SE,9.2,-,N/A,,Clear,140,2013-04-04 01:53:00
9:53 PM,39.0,28.9,67,30.23,10.0,SSE,9.2,-,N/A,,Clear,160,2013-04-04 02:53:00
10:53 PM,36.0,28.0,73,30.22,10.0,South,9.2,-,N/A,,Clear,180,2013-04-04 03:53:00
11:53 PM,35.1,28.0,76,30.21,10.0,South,11.5,-,N/A,,Clear,190,2013-04-04 04:53:00